Madison, MN

10:24 AM CST on December 06, 2019 (GMT -0600)
Madison-Lac Qui Parle County

Weather History for KDXX - October, 2019

Change the Weather History Date:

Wednesday, October 2, 2019

  Actual Average (KAQP) Record (KAQP)
Temperature  
Mean Temperature 48 °F -  
Max Temperature 51 °F 62 °F 87 °F (1997)
Min Temperature 46 °F 37 °F 3 °F (1998)
Degree Days  
Heating Degree Days 16    
Moisture  
Dew Point 44 °F    
Average Humidity 87    
Maximum Humidity 93    
Minimum Humidity 76    
Precipitation  
Precipitation 0.12 in - - ()
Sea Level Pressure  
Sea Level Pressure 30.09 in    
Wind  
Wind Speed 10 mph (NNE)    
Max Wind Speed 15 mph    
Max Gust Speed 20 mph    
Visibility 8 miles    
Events Rain    
Averages and records for this station are not official NWS values.
T = Trace of Precipitation, MM = Missing Value Source: NWS Daily Summary

Daily Weather History Graph

Daily Weather History Graph

Search for Another Location

Airport or City:

Astronomy

Oct. 02, 2019 Rise Set
Actual Time 7:23 AM CDT 7:03 PM CDT
Civil Twilight 6:54 AM CDT 7:32 PM CDT
Nautical Twilight 6:20 AM CDT 8:06 PM CDT
Astronomical Twilight 5:45 AM CDT 8:41 PM CDT
Moon 12:01 PM CDT (10/2) 9:46 PM CDT (10/2)
Length of Visible Light 12h 38m
Length of Day
11h 39m
Waxing Crescent, 20% of the Moon is Illuminated
Oct 2
Waxing Crescent
Oct 5
First Quarter
Oct 13
Full
Oct 21
Last Quarter
Oct 27
New

Hourly Weather History & Observations

Time (CDT) Temp. Windchill Dew Point Humidity Pressure Visibility Wind Dir Wind Speed Gust Speed Precip Events Conditions
12:15 AM 46.4 °F 40.7 °F 41.0 °F 81% 30.09 in 10.0 mi North 12.7 mph 18.4 mph N/A   Mostly Cloudy
12:16 AM 46.4 °F 40.1 °F 41.0 °F 81% 30.09 in 10.0 mi North 15.0 mph 19.6 mph N/A   Mostly Cloudy
12:35 AM 46.4 °F 40.7 °F 41.0 °F 81% 30.10 in 10.0 mi North 12.7 mph - N/A   Overcast
12:36 AM 46.4 °F 40.7 °F 41.0 °F 81% 30.10 in 10.0 mi North 12.7 mph - N/A   Overcast
12:55 AM 46.4 °F 40.7 °F 41.0 °F 81% 30.10 in 10.0 mi North 12.7 mph - N/A   Overcast
1:16 AM 46.4 °F 40.4 °F 41.0 °F 81% 30.11 in 10.0 mi North 13.8 mph 18.4 mph N/A   Overcast
1:36 AM 46.4 °F 41.9 °F 41.0 °F 81% 30.11 in 10.0 mi North 9.2 mph - N/A   Overcast
2:15 AM 46.4 °F 41.9 °F 42.8 °F 87% 30.13 in 10.0 mi North 9.2 mph - N/A   Overcast
2:19 AM 46.4 °F 41.9 °F 42.8 °F 87% 30.13 in 10.0 mi North 9.2 mph - N/A   Overcast
2:55 AM 46.4 °F 41.9 °F 41.0 °F 81% 30.12 in 10.0 mi North 9.2 mph - N/A   Overcast
3:15 AM 46.4 °F 41.9 °F 41.0 °F 81% 30.13 in 10.0 mi North 9.2 mph - N/A   Overcast
3:16 AM 46.4 °F 42.4 °F 41.0 °F 81% 30.13 in 10.0 mi North 8.1 mph - N/A   Overcast
3:35 AM 46.4 °F 41.9 °F 41.0 °F 81% 30.13 in 10.0 mi North 9.2 mph - N/A   Overcast
3:58 AM 46.4 °F 41.9 °F 41.0 °F 81% 30.14 in 10.0 mi North 9.2 mph - N/A   Overcast
4:16 AM 46.4 °F 42.4 °F 41.0 °F 81% 30.14 in 10.0 mi North 8.1 mph - N/A   Overcast
4:36 AM 46.4 °F 41.9 °F 41.0 °F 81% 30.14 in 10.0 mi North 9.2 mph - N/A   Overcast
4:55 AM 46.4 °F 41.9 °F 41.0 °F 81% 30.13 in 10.0 mi North 9.2 mph - N/A   Overcast
4:56 AM 46.4 °F 41.5 °F 41.0 °F 81% 30.13 in 10.0 mi North 10.4 mph - N/A   Overcast
5:15 AM 46.4 °F 41.5 °F 41.0 °F 81% 30.13 in 10.0 mi North 10.4 mph - N/A   Overcast
5:37 AM 46.4 °F 42.4 °F 41.0 °F 81% 30.13 in 10.0 mi North 8.1 mph - N/A   Overcast
5:55 AM 46.4 °F 41.5 °F 41.0 °F 81% 30.12 in 10.0 mi NNE 10.4 mph - N/A   Overcast
6:35 AM 46.4 °F 41.9 °F 41.0 °F 81% 30.13 in 10.0 mi NNE 9.2 mph - N/A   Overcast
6:36 AM 46.4 °F 42.4 °F 41.0 °F 81% 30.13 in 10.0 mi NNE 8.1 mph - N/A   Overcast
6:59 AM 46.4 °F 41.1 °F 39.2 °F 76% 30.12 in 10.0 mi NNE 11.5 mph - N/A   Overcast
7:16 AM 46.4 °F 41.1 °F 41.0 °F 81% 30.12 in 10.0 mi NNE 11.5 mph - N/A   Overcast
7:36 AM 46.4 °F 41.1 °F 41.0 °F 81% 30.12 in 10.0 mi NNE 11.5 mph - N/A   Overcast
7:55 AM 46.4 °F 40.7 °F 41.0 °F 81% 30.10 in 10.0 mi NNE 12.7 mph - N/A   Overcast
8:15 AM 46.4 °F 41.1 °F 41.0 °F 81% 30.10 in 10.0 mi NE 11.5 mph - N/A   Overcast
8:19 AM 46.4 °F 40.7 °F 41.0 °F 81% 30.09 in 10.0 mi NE 12.7 mph 16.1 mph N/A   Overcast
8:37 AM 46.4 °F 41.5 °F 41.0 °F 81% 30.10 in 10.0 mi NNE 10.4 mph 16.1 mph N/A   Overcast
8:56 AM 48.2 °F - 41.0 °F 76% 30.11 in 10.0 mi NNE 11.5 mph - N/A   Overcast
9:15 AM 48.2 °F - 41.0 °F 76% 30.11 in 10.0 mi NNE 10.4 mph - N/A   Overcast
9:16 AM 48.2 °F - 41.0 °F 76% 30.11 in 10.0 mi NNE 9.2 mph - N/A   Overcast
9:35 AM 48.2 °F - 42.8 °F 82% 30.15 in 10.0 mi North 5.8 mph - N/A   Overcast
9:36 AM 48.2 °F - 42.8 °F 82% 30.15 in 10.0 mi North 6.9 mph - N/A   Overcast
9:58 AM 48.2 °F - 42.8 °F 82% 30.16 in 10.0 mi North 8.1 mph - N/A   Overcast
10:16 AM 46.4 °F 41.9 °F 42.8 °F 87% 30.12 in 10.0 mi North 9.2 mph - N/A Rain Light Rain
10:35 AM 46.4 °F 42.4 °F 44.6 °F 93% 30.14 in 10.0 mi North 8.1 mph - N/A Rain Rain
10:36 AM 46.4 °F 42.9 °F 44.6 °F 93% 30.14 in 10.0 mi North 6.9 mph - 0.01 in Rain Rain
10:55 AM 46.4 °F 42.9 °F 44.6 °F 93% 30.14 in 10.0 mi North 6.9 mph - N/A Rain Light Rain
10:56 AM 46.4 °F 42.9 °F 44.6 °F 93% 30.13 in 10.0 mi North 6.9 mph - N/A Rain Light Rain
11:15 AM 48.2 °F - 44.6 °F 87% 30.12 in 10.0 mi NE 6.9 mph - N/A Rain Rain
11:19 AM 48.2 °F - 44.6 °F 87% 30.12 in 10.0 mi NE 6.9 mph - 0.01 in Rain Light Rain
11:38 AM 48.2 °F - 44.6 °F 87% 30.11 in 10.0 mi NNE 6.9 mph - 0.01 in Rain Light Rain
11:55 AM 48.2 °F - 46.4 °F 93% 30.11 in 10.0 mi NNE 8.1 mph - N/A Rain Light Rain
12:15 PM 48.2 °F - 46.4 °F 93% 30.08 in 10.0 mi NNE 10.4 mph - N/A Rain Light Rain
12:16 PM 48.2 °F - 46.4 °F 93% 30.08 in 10.0 mi NE 9.2 mph - N/A Rain Light Rain
12:35 PM 48.2 °F - 46.4 °F 93% 30.08 in 10.0 mi NNE 9.2 mph - N/A Rain Light Rain
12:36 PM 48.2 °F - 46.4 °F 93% 30.08 in 10.0 mi NE 10.4 mph - 0.01 in Rain Light Rain
12:59 PM 48.2 °F - 46.4 °F 93% 30.08 in 10.0 mi ENE 10.4 mph - N/A   Overcast
1:17 PM 50.0 °F - 46.4 °F 87% 30.08 in 10.0 mi NE 9.2 mph - N/A   Overcast
1:36 PM 50.0 °F - 46.4 °F 87% 30.07 in 10.0 mi NE 6.9 mph - N/A   Overcast
1:55 PM 50.0 °F - 46.4 °F 87% 30.06 in 10.0 mi NE 10.4 mph - N/A   Overcast
1:56 PM 50.0 °F - 46.4 °F 87% 30.06 in 10.0 mi NE 10.4 mph - N/A   Overcast
2:15 PM 51.8 °F - 46.4 °F 82% 30.05 in 10.0 mi ENE 12.7 mph - N/A   Overcast
2:20 PM 51.8 °F - 46.4 °F 82% 30.05 in 10.0 mi ENE 11.5 mph - N/A   Overcast
2:37 PM 51.8 °F - 46.4 °F 82% 30.06 in 10.0 mi ENE 8.1 mph - N/A   Overcast
2:55 PM 51.8 °F - 46.4 °F 82% 30.05 in 10.0 mi ENE 10.4 mph - N/A   Overcast
3:15 PM 50.0 °F - 44.6 °F 82% 30.03 in 10.0 mi NE 11.5 mph - N/A   Overcast
3:16 PM 50.0 °F - 44.6 °F 82% 30.03 in 10.0 mi NE 9.2 mph - N/A   Overcast
3:35 PM 50.0 °F - 46.4 °F 87% 30.04 in 10.0 mi NE 8.1 mph - N/A   Overcast
3:59 PM 50.0 °F - 44.6 °F 82% 30.06 in 10.0 mi NE 6.9 mph - N/A Rain Light Rain
4:16 PM 50.0 °F - 46.4 °F 87% 30.04 in 7.0 mi NE 11.5 mph - N/A Rain Rain
4:36 PM 48.2 °F - 46.4 °F 93% 30.04 in 10.0 mi NNE 6.9 mph - 0.02 in Rain Light Rain
4:55 PM 48.2 °F - 46.4 °F 93% 30.03 in 10.0 mi NE 8.1 mph - 0.02 in Rain Light Rain
4:56 PM 48.2 °F - 46.4 °F 93% 30.03 in 10.0 mi NE 9.2 mph - N/A Rain Light Rain
5:15 PM 48.2 °F - 46.4 °F 93% 30.05 in 10.0 mi NNE 5.8 mph - N/A Rain Light Rain
5:19 PM 48.2 °F - 46.4 °F 93% 30.05 in 10.0 mi North 4.6 mph - 0.04 in Rain Light Rain
5:37 PM 48.2 °F - 46.4 °F 93% 30.04 in 4.0 mi North 5.8 mph - 0.03 in Rain Light Rain
5:56 PM 48.2 °F - 46.4 °F 93% 30.04 in 4.0 mi NNE 6.9 mph - N/A   Heavy Drizzle
6:15 PM 48.2 °F - 46.4 °F 93% 30.04 in 4.0 mi NNE 8.1 mph - N/A Rain Light Rain
6:16 PM 48.2 °F - 46.4 °F 93% 30.04 in 4.0 mi NNE 6.9 mph - 0.01 in Rain Heavy Rain
6:35 PM 48.2 °F - 46.4 °F 93% 30.03 in 7.0 mi NNE 6.9 mph - N/A   Drizzle
6:36 PM 48.2 °F - 46.4 °F 93% 30.03 in 5.0 mi NNE 6.9 mph - 0.01 in   Drizzle
6:58 PM 48.2 °F - 46.4 °F 93% 30.04 in 4.0 mi NNE 5.8 mph - N/A   Drizzle
7:16 PM 48.2 °F - 46.4 °F 93% 30.04 in 5.0 mi NNE 9.2 mph - 0.01 in   Heavy Drizzle
7:35 PM 48.2 °F - 46.4 °F 93% 30.05 in 5.0 mi NNE 5.8 mph - N/A   Drizzle
7:55 PM 48.2 °F - 46.4 °F 93% 30.05 in 5.0 mi North 5.8 mph - N/A Rain Light Rain
7:56 PM 48.2 °F - 46.4 °F 93% 30.05 in 5.0 mi North 6.9 mph - N/A Rain Light Rain
8:15 PM 48.2 °F - 46.4 °F 93% 30.06 in 5.0 mi North 5.8 mph - N/A   Drizzle
8:20 PM 48.2 °F - 46.4 °F 93% 30.06 in 4.0 mi North 5.8 mph - N/A   Drizzle
8:37 PM 48.2 °F - 46.4 °F 93% 30.06 in 5.0 mi North 5.8 mph - 0.01 in   Drizzle
8:55 PM 48.2 °F - 46.4 °F 93% 30.06 in 5.0 mi North 8.1 mph - 0.01 in   Drizzle
9:15 PM 48.2 °F - 46.4 °F 93% 30.06 in 5.0 mi North 6.9 mph - N/A   Drizzle
9:35 PM 48.2 °F - 46.4 °F 93% 30.06 in 5.0 mi North 6.9 mph - N/A   Light Drizzle
9:36 PM 48.2 °F - 46.4 °F 93% 30.06 in 5.0 mi North 5.8 mph - N/A   Light Drizzle
9:58 PM 48.2 °F - 46.4 °F 93% 30.06 in 5.0 mi North 4.6 mph - N/A   Drizzle
10:17 PM 48.2 °F - 46.4 °F 93% 30.06 in 4.0 mi North 4.6 mph - N/A   Drizzle
10:36 PM 48.2 °F - 46.4 °F 93% 30.06 in 4.0 mi North 4.6 mph - N/A   Light Drizzle
10:55 PM 48.2 °F - 46.4 °F 93% 30.06 in 4.0 mi North 5.8 mph - N/A   Light Drizzle
10:56 PM 48.2 °F - 46.4 °F 93% 30.06 in 4.0 mi North 4.6 mph - N/A   Light Drizzle
11:37 PM 48.2 °F - 46.4 °F 93% 30.06 in 2.5 mi North 5.8 mph - N/A   Drizzle
11:56 PM 48.2 °F - 46.4 °F 93% 30.06 in 4.0 mi North 5.8 mph - N/A   Light Drizzle